Weather History for KLVN - March, 2014

Change the Weather History Date:

Monday, March 31, 2014

  Actual Average Record
Temperature  
Mean Temperature 42 °F -  
Max Temperature 55 °F 50 °F 79 °F (1986)
Min Temperature 28 °F 28 °F -3 °F (1969)
Degree Days  
Heating Degree Days 24    
Moisture  
Dew Point 39 °F    
Average Humidity 79    
Maximum Humidity 93    
Minimum Humidity 66    
Precipitation  
Precipitation 0.02 in - - ()
Sea Level Pressure  
Sea Level Pressure 29.54 in    
Wind  
Wind Speed 10 mph (SSE)    
Max Wind Speed 25 mph    
Max Gust Speed 34 mph    
Visibility 9 miles    
Events Rain    
Averages and records for this station are not official NWS values.
T = Trace of Precipitation, MM = Missing Value Source: NWS Daily Summary

Daily Weather History Graph

Daily Weather History Graph

Search for Another Location

Airport or City:

Trip Planner

Search our weather history database for the weather conditions in past years. The results will help you decide how hot, cold, wet, or windy it might be!

Date:

Astronomy

Mar. 31, 2014 Rise Set
Actual Time 6:55 AM CDT 7:39 PM CDT
Civil Twilight 6:26 AM CDT 8:08 PM CDT
Nautical Twilight 5:51 AM CDT 8:43 PM CDT
Astronomical Twilight 5:14 AM CDT 9:20 PM CDT
Moon 7:17 AM CDT (3/31) 9:02 PM CDT (3/31)
Length of Visible Light 13h 42m
Length of Day
12h 43m
New Moon, 1% of the Moon is Illuminated
Mar 31
New Moon
Apr 7
First Quarter
Apr 15
Full
Apr 22
Last Quarter
Apr 29
New

Hourly Weather History & Observations

Time (CDT) Temp. Windchill Dew Point Humidity Pressure Visibility Wind Dir Wind Speed Gust Speed Precip Events Conditions
12:18 AM 44.6 °F 40.7 °F 35.6 °F 71% 29.75 in 10.0 mi SE 6.9 mph - N/A   Clear
12:37 AM 42.8 °F 38.6 °F 35.6 °F 76% 29.74 in 10.0 mi SSE 6.9 mph - N/A   Clear
12:58 AM 44.6 °F 40.2 °F 35.6 °F 71% 29.74 in 10.0 mi SSE 8.1 mph - N/A   Clear
1:17 AM 44.6 °F 39.7 °F 35.6 °F 71% 29.74 in 10.0 mi SSE 9.2 mph - N/A   Clear
1:37 AM 44.6 °F 39.7 °F 35.6 °F 71% 29.74 in 10.0 mi SSE 9.2 mph - N/A   Clear
1:58 AM 44.6 °F 40.2 °F 35.6 °F 71% 29.73 in 10.0 mi SSE 8.1 mph - N/A   Clear
2:17 AM 44.6 °F 39.7 °F 35.6 °F 71% 29.72 in 10.0 mi SSE 9.2 mph - N/A   Clear
2:38 AM 44.6 °F 40.2 °F 35.6 °F 71% 29.72 in 10.0 mi SSE 8.1 mph - N/A   Clear
2:58 AM 44.6 °F 39.7 °F 35.6 °F 71% 29.71 in 10.0 mi SSE 9.2 mph - N/A   Clear
3:17 AM 46.4 °F 41.5 °F 35.6 °F 66% 29.70 in 10.0 mi SSE 10.4 mph - N/A   Clear
3:38 AM 46.4 °F 41.9 °F 35.6 °F 66% 29.69 in 10.0 mi SSE 9.2 mph - N/A   Clear
3:57 AM 46.4 °F 42.4 °F 35.6 °F 66% 29.69 in 10.0 mi SSE 8.1 mph - N/A   Clear
4:17 AM 46.4 °F 42.4 °F 35.6 °F 66% 29.68 in 10.0 mi SSE 8.1 mph - N/A   Clear
4:38 AM 46.4 °F 42.4 °F 35.6 °F 66% 29.68 in 10.0 mi SSE 8.1 mph - N/A   Clear
4:57 AM 46.4 °F 42.9 °F 35.6 °F 66% 29.68 in 10.0 mi SE 6.9 mph - N/A   Clear
5:17 AM 46.4 °F 42.9 °F 35.6 °F 66% 29.67 in 10.0 mi SE 6.9 mph - N/A   Clear
5:38 AM 42.8 °F 38.0 °F 35.6 °F 76% 29.66 in 10.0 mi SE 8.1 mph - N/A   Clear
5:57 AM 42.8 °F 39.3 °F 35.6 °F 76% 29.65 in 10.0 mi ESE 5.8 mph - N/A   Clear
6:17 AM 42.8 °F 37.5 °F 35.6 °F 76% 29.66 in 10.0 mi ESE 9.2 mph - N/A   Clear
6:38 AM 41.0 °F 36.4 °F 35.6 °F 81% 29.66 in 10.0 mi ESE 6.9 mph - N/A   Clear
6:57 AM 42.8 °F 38.6 °F 35.6 °F 76% 29.66 in 10.0 mi ESE 6.9 mph - N/A   Clear
7:18 AM 44.6 °F 40.2 °F 35.6 °F 71% 29.67 in 10.0 mi SE 8.1 mph - N/A   Mostly Cloudy
7:38 AM 44.6 °F 40.7 °F 35.6 °F 71% 29.67 in 10.0 mi SE 6.9 mph - N/A   Overcast
7:57 AM 44.6 °F 40.7 °F 37.4 °F 76% 29.66 in 10.0 mi SSE 6.9 mph - N/A   Drizzle
8:18 AM 44.6 °F 40.7 °F 37.4 °F 76% 29.66 in 10.0 mi SSE 6.9 mph - N/A Rain Rain
8:38 AM 42.8 °F 38.6 °F 39.2 °F 87% 29.65 in 7.0 mi South 6.9 mph - N/A Rain Light Rain
8:57 AM 44.6 °F 38.4 °F 41.0 °F 87% 29.64 in 7.0 mi SSE 12.7 mph 18.4 mph N/A Rain Rain
9:18 AM 44.6 °F 39.2 °F 42.8 °F 93% 29.63 in 7.0 mi SSE 10.4 mph - 0.01 in Rain Light Rain
9:37 AM 44.6 °F 38.8 °F 42.8 °F 93% 29.61 in 10.0 mi SSE 11.5 mph 17.3 mph 0.02 in   Drizzle
9:57 AM 44.6 °F 38.1 °F 41.0 °F 87% 29.60 in 7.0 mi SE 13.8 mph - N/A   Drizzle
10:18 AM 44.6 °F 39.2 °F 42.8 °F 93% 29.60 in 7.0 mi SSE 10.4 mph - N/A   Light Drizzle
10:37 AM 44.6 °F 39.2 °F 42.8 °F 93% 29.59 in 7.0 mi SE 10.4 mph 16.1 mph N/A   Overcast
10:58 AM 44.6 °F 38.8 °F 42.8 °F 93% 29.59 in 10.0 mi SE 11.5 mph 18.4 mph N/A   Overcast
11:17 AM 46.4 °F 41.5 °F 42.8 °F 87% 29.59 in 10.0 mi SE 10.4 mph - N/A   Scattered Clouds
11:38 AM 46.4 °F 41.9 °F 42.8 °F 87% 29.56 in 7.0 mi ESE 9.2 mph - N/A   Mostly Cloudy
11:58 AM 46.4 °F 41.5 °F 42.8 °F 87% 29.57 in 7.0 mi ESE 10.4 mph - N/A   Overcast
12:17 PM 46.4 °F 41.5 °F 42.8 °F 87% 29.56 in 7.0 mi SE 10.4 mph 18.4 mph N/A   Overcast
12:38 PM 48.2 °F - 42.8 °F 82% 29.55 in 10.0 mi SE 9.2 mph 17.3 mph N/A   Overcast
12:57 PM 48.2 °F - 42.8 °F 82% 29.53 in 10.0 mi ESE 9.2 mph 16.1 mph N/A   Overcast
1:18 PM 51.8 °F - 44.6 °F 76% 29.51 in 10.0 mi ESE 12.7 mph 18.4 mph N/A   Mostly Cloudy
1:37 PM 53.6 °F - 46.4 °F 77% 29.49 in 10.0 mi SE 16.1 mph 21.9 mph N/A   Scattered Clouds
1:57 PM 53.6 °F - 46.4 °F 77% 29.47 in 10.0 mi SE 18.4 mph 25.3 mph N/A   Scattered Clouds
2:18 PM 53.6 °F - 46.4 °F 77% 29.47 in 10.0 mi SE 13.8 mph 21.9 mph N/A   Overcast
2:37 PM 51.8 °F - 46.4 °F 82% 29.47 in 10.0 mi SSE 13.8 mph 20.7 mph N/A   Overcast
2:58 PM 53.6 °F - 46.4 °F 77% 29.46 in 10.0 mi SE 12.7 mph 19.6 mph N/A   Overcast
3:17 PM 53.6 °F - 46.4 °F 77% 29.44 in 10.0 mi SE 15.0 mph 20.7 mph N/A   Overcast
3:37 PM 55.4 °F - 46.4 °F 72% 29.43 in 10.0 mi SSE 16.1 mph 24.2 mph N/A   Mostly Cloudy
3:58 PM 55.4 °F - 48.2 °F 77% 29.42 in 10.0 mi SE 13.8 mph 19.6 mph N/A   Mostly Cloudy
4:17 PM 55.4 °F - 48.2 °F 77% 29.41 in 10.0 mi SE 11.5 mph - N/A   Mostly Cloudy
4:38 PM 55.4 °F - 48.2 °F 77% 29.39 in 10.0 mi SE 16.1 mph 20.7 mph N/A   Clear
4:58 PM 55.4 °F - 46.4 °F 72% 29.38 in 10.0 mi SE 15.0 mph 20.7 mph N/A   Clear
5:17 PM 55.4 °F - 48.2 °F 77% 29.37 in 10.0 mi SE 17.3 mph 23.0 mph N/A   Clear
5:38 PM 55.4 °F - 48.2 °F 77% 29.36 in 10.0 mi SE 12.7 mph 24.2 mph N/A   Clear
5:57 PM 55.4 °F - 46.4 °F 72% 29.35 in 10.0 mi SE 13.8 mph 21.9 mph N/A   Clear
6:17 PM 55.4 °F - 46.4 °F 72% 29.35 in 10.0 mi SSE 12.7 mph - N/A   Scattered Clouds
6:38 PM 55.4 °F - 48.2 °F 77% 29.35 in 7.0 mi SSE 12.7 mph 21.9 mph N/A Rain Light Rain
6:57 PM 53.6 °F - 48.2 °F 82% 29.35 in 10.0 mi SE 13.8 mph - N/A   Scattered Clouds
7:17 PM 55.4 °F - 48.2 °F 77% 29.37 in 10.0 mi South 15.0 mph 19.6 mph N/A   Mostly Cloudy
7:37 PM 53.6 °F - 48.2 °F 82% 29.37 in 10.0 mi South 9.2 mph - N/A   Overcast
7:57 PM 53.6 °F - 46.4 °F 77% 29.36 in 10.0 mi South 10.4 mph - N/A Rain Light Rain
8:18 PM 50.0 °F - 42.8 °F 76% 29.37 in 10.0 mi SW 12.7 mph 23.0 mph N/A   Mostly Cloudy
8:37 PM 42.8 °F 36.6 °F 35.6 °F 76% 29.39 in 10.0 mi SSW 11.5 mph 29.9 mph N/A   Mostly Cloudy
8:57 PM 37.4 °F 27.2 °F 33.8 °F 87% 29.40 in 10.0 mi SSW 19.6 mph 31.1 mph N/A   Mostly Cloudy
9:18 PM 35.6 °F 26.2 °F 30.2 °F 81% 29.41 in 10.0 mi SSW 15.0 mph 27.6 mph N/A   Mostly Cloudy
9:37 PM 33.8 °F 23.2 °F 28.4 °F 81% 29.41 in 10.0 mi SSW 17.3 mph 33.4 mph N/A   Mostly Cloudy
9:57 PM 32.0 °F 20.5 °F 28.4 °F 87% 29.42 in 10.0 mi SSW 18.4 mph 29.9 mph N/A   Mostly Cloudy
10:18 PM 30.2 °F 16.2 °F 26.6 °F 86% 29.41 in 10.0 mi South 25.3 mph 34.5 mph N/A   Overcast
10:37 PM 28.4 °F 15.4 °F 26.6 °F 93% 29.43 in 5.0 mi South 19.6 mph 25.3 mph N/A   Overcast
10:58 PM 28.4 °F 15.4 °F 26.6 °F 93% 29.43 in 10.0 mi South 19.6 mph 27.6 mph N/A   Overcast
11:18 PM 28.4 °F 17.5 °F 26.6 °F 93% 29.43 in 7.0 mi SSW 13.8 mph 20.7 mph N/A   Overcast
11:37 PM 28.4 °F 17.5 °F 26.6 °F 93% 29.43 in 10.0 mi South 13.8 mph 23.0 mph N/A   Overcast
11:58 PM 28.4 °F 19.1 °F 26.6 °F 93% 29.44 in 5.0 mi SW 10.4 mph 19.6 mph N/A   Overcast